Home > Weather > San Jose > Past weeks

Flag for Costa Rica Weather for the Past 2 Weeks in San Jose, Costa Rica

Now
72 °F

Clear.


Feels Like: 75 °F
Forecast: 67 / 77 °F
Wind: 16 mph from East

Location: Juan Santamaria

Current Time: Feb 9, 2016 at 4:13:26 AM

Latest Report: Feb 9, 2016 at 3:00 AM


Visibility: 10 mi

Pressure: 29.97 "Hg (26.20 "Hg at 1161m altitude)

Humidity: 69%

Dew point: 61 °F

Location of San JoseLocation

Historic Weather in San Jose — Graph

°F

San Jose Temperature Yesterday

Maximum temperature yesterday: 82 °F (at 12:00 PM)
Minimum temperature yesterday: 66 °F (at 12:00 AM)
Average temperature yesterday: 73 °F

High & Low Weather Summary for the Past Weeks

 TemperatureHumidityPressure
High90 °F (Feb 3, 1:00 PM)88% (Jan 30, 2:00 AM)30.10 "Hg (Jan 30, 2:00 AM)
Low59 °F (Feb 1, 5:00 AM)29% (Feb 3, 12:00 PM)29.92 "Hg (Feb 1, 4:00 PM)
Average74 °F58%30.01 "Hg
* Reported Jan 25 3:00 AM — Feb 9 3:00 AM, San Jose, Weather by CustomWeather, © 2016

Note: Actual official high and low records may vary slightly from our data, if they occured in-between our weather recording intervals... More about our weather records

Advertising

San Jose Weather History for the Previous 24 Hours

 ConditionsComfort  
Time TempWeatherWind HumidityBarometerVisibility
3:00 AM
Tue, Feb 9
72 °FClear.16 mph69%29.97 "Hg10 mi
2:00 AM70 °FClear.18 mph69%29.97 "Hg10 mi
1:00 AM70 °FClear.17 mph69%29.99 "Hg10 mi
12:00 AM70 °FClear.15 mph69%30.02 "Hg10 mi
11:00 PM
Mon, Feb 8
70 °FClear.16 mph69%30.04 "Hg10 mi
10:00 PM70 °FClear.17 mph73%30.05 "Hg10 mi
9:00 PM72 °FClear.21 mph65%30.03 "Hg10 mi
8:00 PM70 °FPassing clouds.14 mph69%30.03 "HgN/A
7:00 PM72 °FPassing clouds.15 mph65%30.01 "HgN/A
6:00 PM73 °FPassing clouds.20 mph61%29.98 "HgN/A
5:00 PM75 °FPassing clouds.14 mph54%29.95 "HgN/A
4:00 PM81 °FPassing clouds.16 mph42%29.94 "HgN/A
3:00 PM82 °FPassing clouds.15 mph37%29.92 "HgN/A
2:00 PM82 °FSunny.15 mph35%29.94 "Hg10 mi
1:00 PM82 °FSunny.16 mph35%29.96 "Hg10 mi
12:00 PM82 °FSunny.17 mph32%29.97 "Hg10 mi
11:00 AM81 °FSunny.20 mph37%29.99 "Hg10 mi
10:00 AM77 °FSunny.22 mph42%30.02 "Hg10 mi
9:00 AM75 °FSunny.22 mph44%30.02 "Hg10 mi
8:00 AM72 °FSunny.18 mph50%30.02 "Hg10 mi
7:00 AM68 °FSunny.20 mph60%30.01 "Hg10 mi
6:00 AM68 °FSunny.20 mph60%30.00 "Hg10 mi
5:00 AM66 °FClear.23 mph64%29.99 "Hg10 mi
4:00 AM66 °FClear.22 mph64%29.98 "Hg10 mi
Weather by CustomWeather, © 2016

See weather overviewHow to use our weather pages